Theta_e
345 345 345 346 347 347 350 351 350 350 350 350 350 350 349 350 349 349 349 348 347 344 343 344 345 344 347 347 347 347 347 346 346 346 346 346 345 344 343 344 343 345 346 346 345 345 345 345 345 345 346 346 345 336 333 332 333 334 332 332 333 332
343 344 345 346 347 347 349 349 347 347 348 349 350 350 348 347 350 345 348 346 343 346 342 342 343 347 344 346 346 347 346 346 345 345 345 344 344 343 344 342 343 343 345 345 346 337 340 345 345 346 346 347 338 336 332 331 331 331 331 331 333 333
342 343 344 345 346 346 346 346 346 346 347 348 349 348 346 346 343 343 344 343 343 342 342 343 341 345 345 346 346 346 345 344 345 344 344 343 343 343 343 343 342 343 344 345 341 338 337 336 336 346 346 338 336 335 333 332 331 331 331 333 331 336
341 342 343 343 344 344 344 345 345 344 345 345 345 345 342 342 342 342 343 342 342 345 342 341 347 346 345 344 344 345 345 344 344 344 343 343 342 342 342 342 341 343 343 342 337 336 339 337 337 339 336 332 330 332 333 332 332 331 331 333 332 337
341 342 342 343 343 343 343 344 343 343 343 343 343 342 341 340 340 340 342 342 342 342 342 341 341 341 341 341 340 340 339 337 336 336 343 333 334 337 337 334 335 337 333 334 334 334 336 337 336 333 332 330 331 332 334 333 332 331 331 332 334 337
339 340 341 342 342 344 343 341 341 342 341 342 341 340 341 341 341 342 342 342 341 339 340 339 340 340 341 340 339 338 339 336 335 334 338 333 331 329 331 332 329 331 331 332 331 332 338 335 330 333 332 332 335 333 334 334 333 332 332 333 334 336
338 339 340 341 340 339 338 338 338 340 340 339 337 337 338 341 341 342 341 341 338 337 337 337 338 337 340 340 339 338 338 337 335 333 336 335 331 330 330 329 328 327 328 329 330 332 335 333 330 332 332 335 336 334 334 335 334 332 331 331 335 336
339 339 338 339 338 337 337 337 339 341 338 339 337 336 337 339 342 341 341 340 339 336 335 336 338 337 337 339 338 338 337 335 333 334 334 335 332 330 328 328 329 328 328 329 330 331 331 332 331 331 332 333 334 333 334 336 333 332 331 331 333 336
339 339 338 338 337 337 337 337 338 337 336 341 335 335 336 337 340 340 340 340 339 335 335 336 335 338 338 338 338 336 335 334 333 332 332 332 333 330 328 329 330 331 329 331 330 330 331 330 330 331 332 334 334 333 334 334 332 332 332 332 333 336
339 339 338 337 337 337 337 336 336 335 336 339 334 334 336 337 340 339 338 338 339 336 335 335 337 336 337 335 335 335 338 336 334 332 332 332 333 331 331 335 333 330 331 330 331 332 330 330 331 333 333 333 333 333 334 335 334 334 333 334 335 336
340 340 339 337 337 337 337 336 336 336 336 335 336 336 337 338 340 339 338 337 338 338 338 338 337 334 334 335 333 333 333 333 334 336 335 336 337 338 337 337 338 335 334 333 330 331 331 333 332 333 333 333 332 332 333 335 335 335 334 334 334 334
339 339 339 338 338 337 337 337 337 336 336 336 337 337 337 337 339 339 340 338 337 337 339 338 336 336 335 335 335 335 334 333 332 333 337 336 336 336 336 339 340 339 336 331 331 333 333 332 331 332 333 333 333 333 333 334 335 335 335 334 333 333
340 339 338 337 337 337 337 338 337 336 336 337 336 337 336 338 339 340 339 338 338 338 337 336 335 335 336 335 335 336 334 334 334 334 337 337 338 337 337 336 337 338 334 331 332 332 333 332 331 330 332 333 333 333 334 334 334 334 334 334 332 332
339 338 337 336 336 336 336 337 338 337 337 336 336 336 336 338 339 338 338 338 337 337 338 336 335 335 335 335 334 334 334 334 336 338 337 338 336 336 335 336 335 334 332 330 331 331 331 330 330 330 331 333 333 332 333 334 333 334 334 333 332 332
339 338 338 336 336 336 336 337 338 338 338 338 338 337 337 338 338 337 338 338 336 336 339 336 336 335 336 335 334 333 333 335 334 336 337 333 336 335 334 333 334 333 329 330 331 332 331 330 329 330 331 332 333 334 333 333 333 333 332 331 332 332
338 337 337 337 336 336 336 337 338 340 338 339 339 339 338 338 337 337 337 337 336 336 338 337 336 337 334 334 334 333 334 335 336 335 334 334 334 333 332 332 334 332 328 328 330 329 330 329 330 330 331 331 334 334 332 332 332 332 332 330 330 331
337 337 337 338 337 336 336 336 338 338 338 338 338 338 338 337 336 336 336 335 337 338 335 337 337 336 334 335 334 332 334 335 336 334 335 336 333 333 333 336 332 333 331 330 330 330 329 328 330 330 330 331 333 334 332 331 330 329 330 329 327 330
337 337 337 337 336 335 336 337 337 337 338 337 337 338 338 336 335 335 336 334 335 337 334 336 337 335 334 336 335 333 334 334 335 334 332 333 332 333 334 334 330 331 332 330 328 327 328 330 332 332 330 330 332 331 331 330 330 331 329 329 328 329
334 336 336 336 336 336 336 336 337 338 337 337 336 337 337 336 336 335 336 336 335 335 335 336 337 336 334 334 333 333 333 335 336 333 332 333 332 334 335 332 332 330 331 330 329 329 329 330 330 331 329 329 330 330 330 329 329 328 329 331 332 332
336 338 336 335 334 334 335 335 334 335 335 336 336 336 336 336 334 334 336 337 336 336 336 335 335 335 335 333 333 333 333 335 333 332 333 332 331 329 331 332 331 330 329 331 331 330 330 329 328 329 328 328 327 329 330 329 328 326 326 328 329 329
336 336 333 333 331 330 331 332 334 334 333 334 334 335 335 335 334 334 335 336 336 336 335 335 336 335 332 335 334 333 332 332 333 332 332 334 333 333 334 332 331 330 328 327 328 330 329 330 327 325 326 326 326 329 330 329 328 326 327 327 327 329
335 334 334 332 331 332 334 334 333 333 333 334 334 334 334 335 335 336 336 336 335 334 335 335 335 333 333 333 332 332 333 333 332 332 335 333 335 333 333 332 330 328 330 328 327 329 329 327 322 322 321 322 324 326 327 327 327 327 327 327 328 328
332 332 332 332 332 332 333 335 334 333 333 331 333 334 336 336 337 336 335 335 334 333 333 333 334 334 332 333 332 332 331 330 333 335 332 332 332 332 332 331 330 327 326 328 328 331 329 325 322 322 323 321 318 318 321 322 325 326 327 328 327 328
331 332 332 332 333 334 335 336 335 333 333 330 330 332 335 335 335 334 332 333 333 333 333 333 334 334 333 333 332 332 333 333 334 336 332 332 331 330 331 330 330 328 328 325 325 325 329 329 326 323 315 314 316 317 315 317 320 323 326 326 328 326
331 331 332 333 334 334 334 333 332 332 332 331 331 331 332 330 331 332 332 331 331 333 333 333 333 332 332 331 332 332 334 334 336 335 335 334 332 332 332 330 329 329 328 325 324 325 326 328 326 325 319 315 312 312 313 317 320 320 325 325 326 326
331 331 331 332 333 333 332 331 329 328 326 327 328 328 328 328 329 330 330 332 334 332 332 332 332 332 333 333 332 334 334 335 335 335 333 334 334 333 332 331 332 329 328 329 327 325 324 327 327 329 326 320 316 313 315 318 317 313 323 325 325 328
330 330 330 332 333 333 331 331 329 328 328 328 327 328 329 329 330 329 331 331 332 332 332 332 332 332 332 334 335 335 335 335 336 335 336 332 329 328 331 332 334 329 330 331 328 324 325 326 327 328 328 326 326 323 323 319 314 318 314 320 323 324
330 330 330 332 333 333 331 331 329 329 328 327 328 328 329 330 330 330 330 330 331 332 333 333 333 333 333 334 334 333 335 335 335 333 335 333 332 332 331 332 331 332 329 330 329 326 325 327 324 323 326 324 325 324 324 322 322 318 317 314 317 322
330 331 331 333 332 333 332 331 330 330 328 328 328 329 330 331 330 330 328 328 330 331 332 332 333 332 333 334 335 334 335 334 333 334 334 334 333 333 331 330 331 331 330 330 329 327 327 326 325 324 323 322 323 322 323 323 323 321 318 316 316 318
329 330 331 332 332 332 332 331 330 329 327 327 328 329 329 329 328 327 326 326 327 328 330 329 331 331 332 333 333 334 334 334 333 332 332 332 332 333 332 331 331 331 331 330 330 328 327 326 326 326 325 323 320 319 321 320 320 320 319 320 316 317
329 329 329 331 331 331 331 331 330 329 328 328 328 328 326 326 326 325 325 326 326 327 329 329 329 330 330 331 331 332 331 331 333 333 331 331 332 333 332 332 332 332 331 331 329 329 328 327 327 326 326 324 321 321 319 317 319 319 318 317 317 317
328 328 328 330 331 331 331 331 331 330 329 329 329 328 326 325 325 325 325 326 327 327 328 328 328 328 329 329 330 329 329 329 330 331 330 330 331 332 333 333 332 331 330 330 330 329 328 327 326 326 326 325 323 324 322 322 322 321 319 318 318 316
327 328 325 327 327 328 330 330 330 330 330 330 329 328 327 326 326 325 326 326 327 326 326 326 325 326 328 328 329 328 328 328 328 330 330 330 330 333 333 332 332 331 329 329 329 329 327 326 326 325 325 326 326 325 324 323 324 323 321 321 319 316
326 326 327 328 328 327 327 329 330 330 330 330 328 327 327 326 325 325 326 326 326 326 325 326 325 326 328 328 328 329 329 328 329 329 329 329 329 331 330 331 331 330 330 329 329 328 327 327 326 326 327 326 326 325 324 325 324 324 322 320 317 316
326 328 329 329 329 329 328 328 328 330 330 330 327 326 326 326 325 326 325 326 325 326 326 326 326 327 328 327 327 328 329 328 328 327 328 329 330 330 329 329 330 329 330 331 330 329 328 328 328 327 325 325 325 325 325 325 325 325 324 322 319 317
326 329 329 329 329 329 329 328 328 328 329 328 326 326 325 325 326 326 326 325 325 325 326 326 327 327 328 328 327 327 328 328 328 327 327 328 327 327 328 328 328 329 329 333 330 330 328 328 328 327 326 325 326 326 326 327 328 325 325 324 321 318
324 327 329 329 329 329 329 327 327 327 328 327 326 325 325 324 326 325 326 326 326 325 325 327 327 327 327 326 325 326 327 327 327 327 326 326 327 327 328 327 327 325 326 328 330 330 328 328 327 327 326 326 324 325 325 325 326 326 324 324 321 320
Wind_Speed
10 10 10 10 9 10 12 16 14 15 16 14 12 12 12 11 10 9 8 8 7 4 4 4 5 4 9 6 7 9 9 9 8 7 6 6 6 7 7 6 5 4 3 1 1 2 3 6 7 7 8 8 8 5 7 8 8 7 7 6 5 5
9 10 9 8 6 7 8 11 9 9 9 10 11 10 8 6 7 4 9 6 4 4 4 3 4 7 4 6 7 9 9 8 7 6 5 5 5 5 6 6 4 4 3 2 1 1 2 4 6 6 7 10 5 5 6 7 8 7 8 6 5 7
9 9 10 7 6 6 7 7 8 8 8 10 8 7 6 6 5 5 4 4 3 3 4 3 3 6 5 7 6 10 9 8 7 5 5 4 4 3 5 5 4 3 3 3 1 1 1 1 2 5 8 6 6 7 5 7 7 7 7 6 5 11
10 10 9 8 8 7 6 6 6 6 7 7 7 6 6 6 6 5 5 4 4 4 3 4 7 10 9 5 5 8 8 8 7 5 3 2 2 2 3 3 2 3 2 2 2 1 2 1 1 6 4 6 6 4 5 6 7 7 6 6 6 12
8 10 10 9 9 8 7 7 7 7 6 6 6 6 6 6 6 5 5 5 4 3 4 5 4 4 5 4 3 3 3 2 2 2 3 1 1 0 2 1 1 1 2 2 2 2 2 1 8 1 0 1 5 5 5 5 6 6 5 6 6 13
8 8 9 9 9 9 9 6 6 6 6 6 6 5 6 6 6 7 6 5 5 5 5 5 5 4 5 4 4 3 3 2 3 2 2 2 2 1 1 1 2 3 5 3 4 3 4 9 3 3 2 1 3 5 5 6 6 6 5 5 7 13
8 7 7 7 7 7 6 5 5 6 7 5 4 5 6 6 7 7 6 5 6 5 5 5 6 2 4 4 4 4 4 4 3 3 3 3 3 3 3 3 3 3 3 4 2 2 3 11 5 3 3 5 1 5 6 7 6 6 5 5 7 13
7 7 6 6 8 7 6 7 4 4 7 6 6 4 5 6 6 7 6 5 5 5 5 6 6 2 0 2 4 4 4 4 5 5 3 4 3 3 4 3 3 3 3 3 3 3 4 10 6 3 3 3 4 5 5 6 5 5 5 5 5 10
9 9 7 7 8 7 6 6 5 5 5 7 6 4 5 5 6 7 7 6 5 5 5 5 4 4 5 3 2 4 5 5 5 5 5 5 5 5 5 5 6 6 6 2 1 4 9 7 4 2 2 3 2 3 5 6 6 6 5 5 5 8
10 10 8 8 7 7 6 6 5 5 4 6 5 4 3 5 5 7 7 6 5 5 5 4 3 3 5 2 0 0 1 2 5 6 5 6 6 6 5 2 3 2 1 2 7 7 6 6 4 1 1 5 3 5 5 7 6 5 4 5 5 6
8 8 8 9 8 7 7 7 5 4 4 5 5 4 2 2 5 6 7 6 5 5 5 4 3 3 3 4 2 2 2 2 2 1 6 3 2 3 2 3 3 3 5 10 7 1 5 5 5 3 3 4 4 4 4 4 5 5 5 5 5 4
8 8 9 9 8 8 8 7 6 5 5 4 5 4 3 2 4 6 7 6 5 5 4 4 4 3 3 4 3 3 3 2 1 2 3 3 2 2 2 2 2 3 9 9 3 3 3 5 4 1 1 5 4 5 4 4 5 5 6 4 4 4
10 8 9 9 9 7 7 7 6 6 5 5 5 4 3 3 5 5 6 6 6 5 4 4 4 3 2 3 3 3 3 1 1 1 4 2 3 1 2 2 1 3 11 6 4 2 3 4 5 3 5 4 4 4 4 5 5 6 5 4 5 4
11 9 9 8 8 7 7 7 6 6 6 5 4 4 5 3 4 5 7 7 7 6 5 4 3 2 3 3 3 3 2 1 1 3 4 1 2 2 2 1 0 4 11 3 4 3 3 4 3 2 4 4 5 4 4 5 5 5 4 4 4 4
11 11 10 9 9 8 8 7 7 6 7 6 5 5 4 2 4 5 6 6 6 6 5 5 3 3 3 4 5 2 3 1 1 3 0 4 5 2 2 2 2 9 9 4 4 3 3 3 3 4 4 3 5 5 4 5 5 5 4 3 4 3
11 11 10 10 9 9 8 7 7 6 6 6 6 6 5 4 4 5 6 6 4 5 4 5 4 3 2 3 4 3 2 0 3 3 6 3 6 3 2 1 4 10 8 5 6 3 4 4 3 4 2 2 5 5 4 4 5 4 4 4 3 3
12 11 10 9 9 8 8 8 7 7 7 6 6 5 5 5 5 5 5 6 5 5 5 4 4 4 3 3 2 2 2 2 2 1 7 5 3 1 4 2 6 5 8 6 7 6 3 3 4 3 1 2 4 4 4 4 4 3 3 3 2 2
8 8 8 8 9 8 8 7 6 6 6 6 5 5 5 5 5 5 6 6 5 5 6 5 4 4 5 2 3 3 2 2 2 1 6 7 8 6 4 1 8 4 6 7 7 6 4 3 3 3 3 3 3 3 3 4 4 3 4 3 3 3
9 7 7 8 9 8 8 6 6 6 6 5 5 5 5 4 5 5 5 6 6 5 5 5 6 5 5 3 3 3 3 2 3 0 10 3 3 3 4 1 8 6 3 5 9 6 5 5 4 4 4 4 4 2 3 3 3 3 2 3 4 4
10 11 9 8 6 7 7 7 7 5 5 5 5 5 4 4 5 5 5 6 6 6 5 5 5 4 4 2 3 2 1 2 2 6 7 3 4 3 4 4 8 9 7 6 8 8 8 9 6 6 7 5 1 2 5 3 3 2 2 3 4 3
10 10 9 10 7 3 5 6 6 6 6 6 6 6 6 6 6 6 6 6 6 6 6 5 5 5 5 4 3 3 3 2 4 7 3 3 5 3 3 4 6 8 9 7 7 5 7 9 9 6 5 6 5 3 4 4 3 2 3 2 2 3
8 11 9 10 9 9 7 7 8 7 6 7 7 7 7 7 7 7 7 6 5 5 6 6 5 5 4 4 4 4 5 3 7 8 3 3 4 6 3 4 4 6 5 8 7 9 8 7 4 7 7 5 5 4 3 4 4 3 2 2 2 3
9 10 8 9 8 6 7 7 5 4 7 5 2 4 6 6 6 7 6 7 7 6 5 5 6 5 6 5 4 4 5 7 11 4 4 3 3 6 4 5 4 6 6 3 5 5 7 2 6 5 6 6 4 2 1 2 3 3 3 2 2 3
8 6 7 6 7 7 7 5 4 4 4 2 3 2 5 5 5 6 6 6 6 7 6 6 6 7 5 5 4 5 6 7 5 4 5 4 3 4 4 4 4 5 8 6 3 3 2 3 6 9 5 2 4 2 4 0 3 2 2 2 2 2
10 9 8 8 6 4 4 5 6 5 4 4 2 4 6 5 6 6 6 6 7 7 7 7 7 6 6 7 7 6 6 5 4 4 4 5 5 5 4 4 4 6 8 8 5 2 1 3 7 4 5 5 2 1 2 3 5 3 1 2 2 2
11 11 8 7 6 6 6 7 8 8 8 6 7 7 8 9 8 8 8 7 6 7 7 6 7 7 8 7 7 7 6 5 4 5 5 4 3 3 4 4 4 6 6 5 7 5 3 3 6 2 4 4 5 5 7 6 2 4 2 2 2 2
8 8 9 9 10 8 8 8 11 11 10 10 9 7 5 5 7 6 6 8 7 6 7 8 7 7 7 7 8 7 7 6 4 4 3 5 5 4 5 5 5 6 6 6 6 5 6 5 3 0 2 1 1 3 8 8 3 5 4 1 2 1
9 10 11 11 12 10 10 9 8 8 7 7 8 8 7 6 5 6 7 7 6 7 8 7 7 7 8 8 8 8 6 6 5 5 2 6 7 7 5 4 4 7 6 6 6 7 6 6 6 3 2 3 4 6 6 2 6 6 6 6 3 2
13 13 11 11 11 11 10 10 10 8 7 6 5 4 5 5 5 5 6 5 5 6 6 6 7 8 8 7 8 8 7 6 6 6 6 5 4 4 5 7 5 6 5 5 6 6 6 6 5 5 4 3 5 4 3 5 4 6 6 7 4 3
13 12 12 12 13 15 14 11 10 9 9 7 4 4 5 5 5 5 6 5 5 4 5 5 6 7 7 7 7 7 7 7 6 6 6 5 4 4 6 6 6 6 6 6 5 6 7 5 5 5 4 5 4 3 4 3 4 5 4 2 8 6
16 12 14 17 16 15 14 13 12 11 11 10 8 6 5 5 4 4 6 6 5 4 6 6 6 6 7 7 6 6 6 6 5 6 6 6 5 6 6 6 6 6 6 7 6 6 6 5 6 6 5 6 6 7 6 5 7 7 6 5 6 5
15 16 16 17 19 19 16 15 13 12 12 10 10 8 7 6 6 6 5 6 5 5 6 6 6 6 7 6 7 6 6 5 5 7 6 5 5 6 5 5 6 6 6 5 5 6 6 5 5 6 5 5 6 5 4 5 6 7 7 7 8 7
20 15 2 7 8 6 4 11 10 10 9 8 8 8 8 7 6 6 5 5 6 6 7 7 6 6 5 6 7 7 6 6 6 7 6 6 4 4 5 6 6 5 5 6 6 6 6 6 6 6 6 5 5 5 5 5 6 7 7 7 8 8
6 11 6 3 4 3 1 1 5 7 6 6 6 6 6 7 6 5 5 5 7 8 8 7 6 6 6 7 6 6 6 6 5 6 6 6 5 4 4 5 6 6 5 5 5 5 5 5 5 5 5 6 5 5 5 6 6 7 9 9 7 8
7 6 7 6 5 2 0 1 2 4 5 4 5 4 4 5 5 5 4 6 6 7 8 7 7 6 6 7 6 5 6 6 5 5 7 6 5 5 4 4 5 5 4 5 6 5 4 5 5 5 4 5 5 5 6 6 6 6 8 8 8 8
4 7 8 9 7 5 2 1 0 2 4 4 3 3 3 3 3 4 5 6 6 7 7 7 6 6 6 6 6 6 6 6 5 5 6 6 5 5 4 5 4 4 4 4 6 5 5 4 5 5 5 5 5 4 4 6 5 6 7 7 7 6
3 6 8 9 9 6 4 2 1 1 3 3 3 4 4 4 3 4 4 5 6 7 7 7 6 6 7 7 7 6 6 6 5 5 5 5 5 5 6 5 5 5 5 4 6 6 5 4 4 4 4 4 5 5 4 3 4 6 6 6 7 7
Wind_Direction
146 142 138 139 139 138 140 136 135 138 142 145 141 137 137 136 134 137 136 137 127 108 105 119 124 128 140 125 137 140 133 132 131 131 128 124 121 114 111 106 105 106 102 90 13 10 349 350 351 3 349 354 27 42 99 106 102 99 92 88 87 96
141 141 140 136 137 137 135 136 138 140 141 138 137 136 132 131 133 128 141 131 121 129 119 121 132 139 118 145 144 142 135 130 133 128 120 116 125 119 111 119 114 118 124 126 255 352 352 339 343 349 344 357 21 59 102 102 103 102 101 99 99 103
146 142 138 131 129 129 132 137 139 140 140 139 136 131 133 134 125 132 133 137 120 118 133 145 132 143 135 147 148 144 140 143 140 136 127 125 118 124 116 118 136 126 136 156 167 264 301 292 322 355 11 6 38 80 92 101 101 103 109 115 115 117
145 143 141 137 136 138 139 137 139 140 141 143 140 143 142 135 136 134 136 129 117 108 113 136 149 157 147 135 142 147 150 150 153 142 155 121 147 133 136 133 142 154 156 195 199 226 222 239 77 39 29 44 50 50 96 103 104 107 110 110 109 110
138 142 138 139 140 143 144 143 148 149 149 151 150 152 148 140 140 139 125 109 103 98 108 114 118 105 104 121 110 125 138 124 113 144 148 119 172 237 137 137 168 153 205 241 232 213 210 121 54 33 338 55 70 67 90 98 104 106 107 110 117 116
128 132 134 143 147 143 136 138 144 145 150 163 156 148 133 127 129 125 114 108 99 94 99 109 110 117 115 121 131 133 150 155 159 175 172 197 196 222 169 215 203 179 213 215 224 223 181 107 128 257 228 41 88 75 81 86 100 107 112 114 116 114
126 127 127 134 121 111 119 117 125 150 158 151 110 129 127 115 112 110 105 113 121 113 107 121 113 82 139 142 152 167 182 181 189 186 189 203 210 203 190 205 239 224 218 220 235 224 152 116 154 196 241 113 84 107 113 110 108 112 110 112 117 117
132 133 131 134 119 117 121 133 147 141 145 137 128 138 133 117 112 114 115 115 121 121 122 118 120 128 329 162 184 180 197 192 201 195 183 203 219 209 191 203 225 238 233 237 247 207 122 110 135 175 256 86 102 144 109 103 108 108 107 108 117 118
145 141 140 134 123 122 135 140 131 150 150 130 139 167 145 122 117 121 121 123 128 125 114 111 115 123 143 200 221 209 194 194 205 204 177 207 214 206 191 199 208 203 204 202 233 75 82 115 113 130 171 84 93 90 80 107 119 122 124 116 111 121
149 149 145 132 130 134 145 138 152 157 145 123 147 168 155 137 133 126 125 129 124 127 129 120 101 120 133 154 55 276 152 187 203 204 182 197 218 195 186 159 181 145 79 39 28 87 112 106 106 122 63 82 107 100 105 126 128 120 115 103 105 115
143 145 145 136 136 138 143 147 151 138 124 130 137 151 162 158 144 131 131 130 127 128 121 102 103 120 101 100 94 83 27 23 37 260 184 190 140 127 120 106 132 118 86 65 68 71 102 104 128 148 153 111 109 92 84 103 110 110 106 106 111 123
163 159 151 141 139 145 148 144 140 133 142 149 138 145 161 190 141 130 127 128 122 116 104 88 104 100 102 101 123 77 61 34 1 13 303 142 89 79 73 113 85 112 89 93 133 49 52 117 100 139 70 74 81 89 84 89 100 107 108 111 119 118
152 156 151 144 145 149 137 132 134 143 153 152 135 131 184 211 141 128 122 115 103 94 90 107 108 112 130 130 110 103 101 49 278 239 289 146 151 96 81 77 177 86 84 88 77 45 66 57 101 69 72 87 94 91 95 93 101 105 113 120 120 113
153 154 151 143 145 147 137 131 138 145 147 146 144 151 182 219 134 117 111 106 113 127 123 118 128 154 160 125 105 96 100 103 297 2 319 322 174 139 139 101 301 72 85 141 123 160 121 94 88 105 87 91 85 102 102 93 97 105 106 107 106 105
155 155 152 149 150 145 136 138 142 149 149 156 166 163 181 168 121 114 113 118 143 133 122 126 137 164 170 127 125 119 112 163 212 19 323 355 296 108 109 48 32 75 117 124 117 85 72 88 97 77 72 93 101 108 91 100 102 98 100 98 96 104
156 153 153 151 148 140 139 139 142 139 140 146 149 157 151 145 135 125 117 120 140 132 134 136 150 142 100 114 116 125 118 147 56 62 289 193 265 116 100 96 56 101 115 125 107 83 60 75 62 80 65 81 92 100 112 111 111 108 112 104 101 96
155 152 148 142 133 130 131 140 141 137 142 138 145 147 142 141 137 135 125 121 127 135 126 137 147 123 124 104 101 106 132 116 117 122 256 202 178 321 131 152 84 85 123 130 122 106 71 52 56 88 40 63 89 103 106 122 110 107 103 108 102 84
140 143 138 127 123 126 132 134 131 137 145 148 146 143 147 149 151 147 138 140 134 134 152 154 146 134 128 129 145 138 124 88 95 51 273 230 130 200 158 146 109 97 111 121 111 116 127 115 87 86 82 85 85 97 114 106 108 106 104 121 125 112
129 140 127 108 111 121 121 117 120 136 155 151 142 149 147 147 149 146 142 145 145 150 158 154 139 153 133 160 132 139 135 132 86 225 243 204 106 113 94 92 120 136 120 114 120 132 112 105 85 95 99 63 39 97 111 98 103 97 112 139 134 119
151 146 125 99 98 113 119 131 139 148 151 146 142 142 140 146 148 149 145 141 150 155 155 162 141 133 121 150 141 135 139 85 119 224 225 124 109 142 137 148 117 124 113 95 105 136 123 118 113 115 106 97 132 104 97 104 89 84 84 74 88 115
152 132 124 116 109 97 135 139 149 167 165 157 157 154 152 159 164 165 157 152 156 149 151 157 148 140 137 164 115 102 82 53 260 229 178 143 151 164 179 141 128 125 129 121 113 128 135 129 124 95 84 84 56 25 79 97 99 72 67 83 116 107
136 121 114 115 142 166 181 171 164 171 163 167 163 163 162 167 163 167 158 156 154 155 152 150 146 135 143 132 130 132 112 163 233 214 150 162 128 169 183 128 125 118 128 128 131 151 158 143 105 131 131 119 82 40 32 60 64 50 77 88 97 105
90 106 122 138 153 170 174 172 170 169 166 158 179 186 162 158 153 154 157 148 152 161 160 149 144 154 156 145 151 148 135 202 220 166 139 142 161 146 142 143 136 131 110 96 117 157 182 147 135 127 124 113 134 110 309 48 54 31 41 80 83 101
104 109 122 136 154 180 182 166 135 136 143 122 176 174 131 135 132 140 155 151 152 164 164 158 158 164 145 148 151 167 185 199 199 156 154 159 142 140 134 138 138 121 123 123 134 185 229 162 140 145 153 174 176 132 125 126 97 47 13 46 74 98
119 135 156 172 172 173 142 114 103 97 101 98 96 128 135 148 160 159 153 165 172 173 170 165 163 165 157 165 162 190 195 184 158 157 151 144 153 158 154 158 140 131 143 146 147 143 219 161 161 174 142 123 98 178 224 132 129 70 14 41 29 96
152 154 161 170 157 161 166 153 148 152 160 172 177 174 175 173 171 169 174 173 162 176 170 167 170 174 173 170 174 189 174 158 156 154 156 155 130 138 154 157 148 140 128 145 146 137 147 170 177 185 169 172 170 167 159 174 152 130 68 59 104 74
148 152 161 175 175 172 176 179 177 176 176 178 178 198 189 179 172 176 156 166 173 173 175 177 185 185 182 176 172 165 156 154 151 147 137 130 143 197 183 163 140 128 146 138 135 141 158 166 143 169 99 104 118 129 147 147 132 126 123 87 48 41
164 170 182 183 180 179 178 180 180 186 180 187 189 183 183 180 173 160 158 168 167 177 185 194 192 184 172 160 151 149 151 148 150 135 150 173 163 183 160 126 147 142 144 141 149 152 170 169 159 169 135 88 87 120 147 80 137 141 131 133 117 75
172 179 183 185 179 181 182 183 184 180 182 198 185 178 160 155 157 163 157 173 176 176 182 185 166 151 145 143 143 148 153 158 155 169 172 140 158 143 141 146 139 129 141 150 151 157 152 180 157 152 125 85 89 105 103 117 127 117 136 128 114 141
177 181 183 185 192 183 177 177 184 182 180 185 176 161 154 159 162 167 162 179 179 166 169 158 137 138 136 139 142 150 152 163 172 168 153 155 141 126 132 137 137 134 139 137 145 145 158 167 152 154 148 151 127 115 96 94 115 116 80 81 142 149
182 185 183 185 188 191 183 180 183 180 175 175 171 159 157 161 163 166 168 177 169 169 158 144 139 131 136 138 138 144 140 157 153 144 144 139 133 138 138 136 135 135 138 140 148 144 140 145 147 145 149 151 153 160 164 158 161 148 150 135 128 137
187 192 193 191 188 185 184 181 178 175 175 173 167 163 167 169 175 176 177 170 163 144 131 127 125 121 136 137 138 139 135 123 118 124 138 136 132 132 135 133 133 139 145 148 147 144 143 146 145 143 148 155 157 157 143 142 159 150 143 146 143 148
189 190 108 17 341 311 225 172 167 169 169 165 163 164 165 170 177 180 174 157 147 144 126 117 130 117 132 126 126 128 128 129 119 132 138 135 144 138 133 142 144 151 149 150 159 154 151 158 154 147 156 158 152 144 155 152 141 139 134 137 144 144
113 80 81 67 5 340 317 194 167 163 161 154 159 168 171 170 176 180 166 151 145 140 132 135 141 137 142 125 122 128 132 136 134 132 138 139 140 139 137 140 149 148 155 153 146 152 158 160 155 155 146 139 151 157 160 151 151 132 141 144 154 153
82 79 81 76 79 56 39 276 177 155 148 141 149 165 173 175 173 171 158 143 142 138 136 146 147 150 131 124 130 121 133 135 130 118 130 136 142 143 135 124 137 144 140 149 143 141 152 149 152 148 141 142 148 150 150 153 148 147 147 156 159 164
98 94 89 96 94 83 68 33 308 119 139 128 134 147 165 169 194 174 154 147 146 138 146 148 147 134 131 124 117 119 119 126 125 122 125 137 147 141 135 131 128 130 142 152 147 150 165 148 149 149 144 143 139 163 158 151 157 155 154 158 155 157
120 124 123 117 122 103 82 88 62 63 113 120 140 166 182 183 200 177 152 149 142 147 141 137 138 124 120 118 119 115 118 120 121 125 126 132 143 136 143 139 142 143 153 149 145 162 157 154 159 152 144 152 155 155 167 153 144 156 159 149 153 159